Weather History for Defiance, OH

Change the Weather History Date:

Thursday, June 20, 2013

  Actual Average Record
Temperature  
Mean Temperature 68 °F -  
Max Temperature 84 °F 81 °F 96 °F (1953)
Min Temperature 53 °F 58 °F 40 °F (1970)
Cooling Degree Days 4    
Growing Degree Days 18 (Base 50)    
Moisture  
Dew Point 54 °F    
Average Humidity 57    
Maximum Humidity 86    
Minimum Humidity 38    
Precipitation  
Precipitation 0.00 in - - ()
Sea Level Pressure  
Sea Level Pressure 30.17 in    
Wind  
Wind Speed 2 mph (SE)    
Max Wind Speed 7 mph    
Max Gust Speed -    
Visibility 10 miles    
Events      
Averages and records for this station are not official NWS values.
T = Trace of Precipitation, MM = Missing Value Source: NWS Daily Summary

Daily Weather History Graph

Daily Weather History Graph

Search for Another Location

Airport:

Trip Planner

Search our weather history database for the weather conditions in past years. The results will help you decide how hot, cold, wet, or windy it might be!

Date:

Astronomy

Jun. 20, 2013 Rise Set
Actual Time 6:04 AM EDT 9:14 PM EDT
Civil Twilight 5:30 AM EDT 9:48 PM EDT
Nautical Twilight 4:46 AM EDT 10:31 PM EDT
Astronomical Twilight 3:54 AM EDT 11:23 PM EDT
Moon 6:14 PM EDT (6/20) 3:31 AM EDT (6/20)
Length of Visible Light 16h 17m
Length of Day
15h 09m
Waxing Gibbous, 89% of the Moon is Illuminated
Jun 20
Waxing Gibbous
Jun 23
Full
Jun 30
Last Quarter
Jul 8
New
Jul 15
First Quarter

Hourly Weather History & Observations

Time (EDT) Temp. Heat Index Dew Point Humidity Pressure Visibility Wind Dir Wind Speed Gust Speed Precip Events Conditions
12:53 AM 62.1 °F - 48.9 °F 62% 30.15 in 10.0 mi ESE 5.8 mph - N/A   Clear
1:53 AM 61.0 °F - 48.0 °F 62% 30.16 in 10.0 mi SE 4.6 mph - N/A   Clear
2:53 AM 60.1 °F - 48.0 °F 64% 30.15 in 10.0 mi SE 3.5 mph - N/A   Clear
3:53 AM 57.0 °F - 48.9 °F 74% 30.17 in 10.0 mi Calm Calm - N/A   Clear
4:53 AM 54.0 °F - 48.9 °F 83% 30.17 in 10.0 mi Calm Calm - N/A   Clear
5:53 AM 53.1 °F - 48.0 °F 83% 30.19 in 10.0 mi Calm Calm - N/A   Clear
6:53 AM 53.1 °F - 48.9 °F 86% 30.19 in 10.0 mi Calm Calm - N/A   Clear
7:53 AM 61.0 °F - 52.0 °F 72% 30.20 in 10.0 mi Calm Calm - N/A   Clear
8:53 AM 66.0 °F - 51.1 °F 59% 30.21 in 10.0 mi South 4.6 mph - N/A   Clear
9:53 AM 69.1 °F - 53.1 °F 57% 30.21 in 10.0 mi Calm Calm - N/A   Clear
10:53 AM 73.0 °F - 55.0 °F 53% 30.21 in 10.0 mi Calm Calm - N/A   Clear
11:53 AM 77.0 °F - 55.0 °F 47% 30.20 in 10.0 mi Calm Calm - N/A   Clear
12:53 PM 79.0 °F - 55.9 °F 45% 30.19 in 10.0 mi Calm Calm - N/A   Clear
1:53 PM 81.0 °F 80.8 °F 55.9 °F 42% 30.19 in 10.0 mi Calm Calm - N/A   Partly Cloudy
2:53 PM 82.0 °F 81.3 °F 54.0 °F 38% 30.18 in 10.0 mi WSW 4.6 mph - N/A   Mostly Cloudy
3:53 PM 84.0 °F 83.0 °F 55.9 °F 38% 30.18 in 10.0 mi NNW 6.9 mph - N/A   Mostly Cloudy
4:53 PM 82.9 °F 82.1 °F 55.9 °F 39% 30.17 in 10.0 mi Calm Calm - N/A   Clear
5:53 PM 82.9 °F 82.4 °F 57.0 °F 41% 30.15 in 10.0 mi Calm Calm - N/A   Partly Cloudy
6:53 PM 82.9 °F 82.4 °F 57.0 °F 41% 30.14 in 10.0 mi Calm Calm - N/A   Clear
7:53 PM 82.0 °F 82.0 °F 57.9 °F 44% 30.14 in 10.0 mi SE 3.5 mph - N/A   Scattered Clouds
8:53 PM 77.0 °F - 60.1 °F 56% 30.14 in 10.0 mi Calm Calm - N/A   Partly Cloudy
9:53 PM 73.9 °F - 61.0 °F 64% 30.15 in 10.0 mi East 3.5 mph - N/A   Mostly Cloudy
10:53 PM 73.0 °F - 59.0 °F 61% 30.17 in 10.0 mi Calm Calm - N/A   Mostly Cloudy
11:53 PM 71.1 °F - 57.9 °F 63% 30.18 in 10.0 mi East 5.8 mph - N/A   Mostly Cloudy